Lapse_Rate
3.9 5.0 4.9 5.6 5.3 6.7 5.7 5.0 5.4 6.2 6.4 5.9 6.3 6.3 6.7 7.1 7.6 7.8 7.1 3.1 3.3 3.9 4.5 4.7 4.6 4.6 4.7 4.6 4.5 4.8 4.9 5.3 5.6 5.3 4.9 4.8 4.8 4.9 5.2 5.1 5.1 4.8 4.7
1.8 1.8 2.5 4.2 4.4 3.7 3.9 4.9 5.5 5.9 5.7 6.2 5.8 5.4 5.8 5.5 6.3 6.9 7.1 3.3 3.3 3.7 4.2 4.5 4.7 4.9 4.9 4.9 4.6 4.5 4.7 4.8 5.3 5.4 5.0 4.6 4.8 5.0 5.5 5.4 4.7 4.9 4.9
2.4 3.1 3.2 3.9 4.6 4.2 3.6 3.7 3.5 5.1 5.7 6.3 6.5 6.4 5.7 5.5 4.9 4.8 6.2 5.9 3.2 2.9 3.4 3.9 4.3 4.6 5.0 5.0 4.9 4.4 4.5 4.5 4.6 4.8 4.7 4.5 4.3 4.6 5.1 5.2 4.7 4.6 4.9
3.9 3.7 4.8 5.3 5.5 5.3 4.8 4.4 4.7 5.3 5.5 5.3 5.4 5.0 5.6 5.1 6.1 5.6 5.2 5.9 5.4 5.1 2.0 2.9 3.7 4.2 4.5 5.3 5.1 4.8 4.6 4.3 4.3 4.5 4.5 4.4 4.3 4.4 4.8 4.9 5.0 4.9 4.7
3.3 4.3 5.5 6.2 5.7 5.4 6.2 6.1 5.7 5.2 5.2 5.0 5.4 5.5 4.0 4.4 2.9 3.1 4.5 6.1 6.1 5.0 4.0 4.1 4.0 3.9 4.5 5.4 5.4 5.5 5.3 4.8 4.5 4.4 4.1 3.7 3.8 4.0 4.3 4.5 4.8 4.0 4.2
3.3 2.8 3.2 3.0 3.4 3.7 3.5 3.3 3.8 4.4 4.8 5.3 6.7 5.4 4.9 4.4 3.6 4.8 3.9 5.8 6.2 3.3 3.1 3.7 3.3 2.5 2.4 2.7 3.9 5.5 5.8 5.6 5.3 4.9 4.4 4.0 3.7 3.7 3.6 4.0 4.9 4.4 4.3
2.5 2.5 1.8 2.3 2.2 2.3 2.4 2.5 1.9 1.7 2.1 4.0 5.0 5.4 4.6 4.7 4.3 4.6 4.5 4.3 3.3 2.8 3.1 2.6 2.9 3.5 3.9 2.3 2.3 3.9 5.4 6.2 5.7 5.7 5.0 4.4 4.1 3.8 3.3 3.6 4.1 4.6 4.4
4.1 2.9 1.9 2.0 1.8 2.0 2.2 2.2 1.9 1.3 1.3 2.8 4.1 5.1 5.6 4.9 5.0 5.3 4.9 3.6 2.4 1.7 2.8 3.0 4.1 5.2 6.2 5.0 3.5 2.1 3.9 5.5 6.0 5.8 5.6 4.8 4.2 4.0 3.8 3.5 3.9 4.2 4.0
5.7 3.2 3.0 2.4 2.2 2.4 2.0 1.7 2.3 1.9 1.6 2.0 3.6 6.7 6.1 5.7 5.1 4.6 5.7 5.7 4.1 4.0 4.0 4.4 4.9 5.8 5.9 6.1 5.3 3.6 2.7 3.4 4.9 5.6 5.6 5.2 4.5 4.0 4.1 4.0 3.6 3.8 4.2
7.0 3.7 2.6 2.9 2.7 2.5 2.1 1.8 2.3 2.3 3.3 2.9 3.6 7.4 5.2 6.3 7.2 6.9 6.2 5.2 5.6 5.1 4.4 4.2 5.0 4.3 5.2 5.6 6.1 6.3 4.0 1.8 3.1 4.3 5.1 5.1 4.5 4.0 4.2 4.1 3.7 3.6 4.0
5.4 3.4 2.9 2.5 2.2 2.4 2.8 2.1 2.0 2.0 3.0 4.6 6.4 6.4 6.7 7.2 6.6 7.2 6.9 6.5 5.5 5.6 5.9 5.8 5.3 5.2 5.6 5.3 5.6 5.8 5.3 1.6 1.1 2.8 4.1 4.8 4.6 3.8 3.8 4.0 3.9 3.6 3.6
3.8 3.9 2.6 3.0 3.1 3.1 3.1 3.1 2.5 3.1 3.8 6.0 6.4 6.5 6.5 6.4 6.3 6.9 7.1 7.0 6.6 5.5 5.8 5.9 6.1 5.6 5.0 5.4 5.8 6.3 4.7 1.7 1.2 1.8 3.0 4.0 3.9 3.5 3.3 3.6 4.1 4.0 3.8
5.9 5.7 4.4 4.0 3.4 4.0 3.7 4.1 4.1 4.5 4.9 5.5 5.8 5.6 5.9 5.8 6.7 6.7 6.5 7.2 7.4 7.5 7.3 5.6 5.9 5.6 7.3 6.3 6.0 3.9 3.6 1.3 0.8 1.1 2.1 2.4 3.2 3.4 3.3 3.2 3.7 4.1 4.2
7.5 7.1 6.6 6.0 5.9 5.8 5.4 5.1 5.9 6.0 5.2 4.9 4.6 4.0 4.5 5.6 5.1 6.1 6.5 6.5 6.5 6.6 7.2 7.6 5.7 5.7 6.5 5.8 6.6 4.6 5.2 1.7 0.3 0.6 1.2 1.9 2.6 2.8 3.0 3.4 3.5 4.0 3.9
7.8 6.9 7.0 7.4 6.7 6.2 5.8 5.8 6.1 5.0 4.3 3.3 3.4 3.5 3.3 2.8 3.0 3.7 4.2 4.3 5.6 7.0 6.6 7.6 7.4 5.2 5.9 7.2 6.5 5.3 4.7 5.7 -0.1 -0.1 -0.0 0.7 1.6 2.1 2.2 2.5 2.9 3.6 3.8
6.4 6.4 6.5 7.7 6.5 6.1 5.5 5.9 6.1 5.2 4.8 4.5 4.5 4.1 3.3 2.9 2.9 3.0 3.0 3.1 3.7 5.1 6.4 6.4 6.4 6.8 6.9 7.1 7.4 5.7 5.6 3.8 1.3 -0.3 -0.7 -0.5 0.6 1.2 1.5 1.6 2.2 2.3 2.9
6.6 7.4 8.0 7.4 5.9 5.5 5.9 7.3 7.5 7.2 6.4 5.9 5.5 4.3 3.5 3.6 3.3 2.9 3.0 4.0 4.2 4.3 5.0 4.3 4.1 5.1 5.3 6.0 6.2 7.0 6.1 5.6 4.0 0.2 -1.1 -1.0 -0.2 0.2 0.4 0.7 0.9 1.4 1.6
7.3 8.4 8.8 8.1 5.6 4.0 5.1 6.7 7.9 7.8 7.6 7.1 6.8 5.6 4.4 4.8 4.7 3.7 3.5 3.4 3.0 3.1 4.1 4.4 3.8 3.7 4.0 4.5 1.5 2.7 5.7 6.8 5.7 3.1 -1.6 -1.5 -0.9 -0.6 -0.3 -0.6 -0.3 0.2 1.0
8.6 9.0 8.5 8.4 5.9 3.9 4.7 6.2 8.1 8.0 8.0 7.8 7.6 6.9 5.3 4.9 5.0 5.2 4.2 3.2 2.8 3.2 3.6 3.8 4.7 3.1 2.7 0.0 0.1 0.5 -0.2 -0.6 0.9 0.7 1.4 0.4 -0.5 -1.3 -1.6 -1.4 -1.5 -1.3 -0.4
7.8 8.8 8.3 7.0 5.5 4.3 4.7 6.7 8.6 8.6 8.2 7.9 7.2 8.4 5.0 4.5 4.9 6.2 5.7 4.2 3.7 3.5 3.3 3.7 3.4 2.9 2.1 0.9 0.2 -1.5 -3.0 -1.7 -1.1 1.1 2.4 2.7 0.3 -0.5 -1.4 -1.7 -1.5 -1.5 -1.5
7.4 8.1 8.2 5.9 4.8 3.5 4.3 6.4 8.9 8.1 7.0 5.1 4.8 6.1 4.6 3.8 4.6 7.1 6.5 5.4 3.9 3.4 4.4 5.0 4.0 3.6 2.5 0.3 0.0 -0.1 -0.1 -1.7 -1.5 1.6 -0.5 0.1 2.3 2.3 0.6 -1.5 -0.6 -1.3 -1.6
5.5 5.6 7.5 6.1 3.9 4.8 4.9 6.8 8.7 8.3 6.9 4.5 3.0 3.1 3.3 1.8 2.5 4.6 5.3 5.1 4.7 4.3 4.7 5.5 6.2 5.5 5.7 4.5 2.4 2.1 1.3 1.2 1.4 0.8 -1.1 -3.0 -0.3 1.0 5.1 3.4 0.3 -1.5 -2.3
4.8 4.3 5.0 6.0 4.2 4.0 4.7 6.2 8.7 6.8 6.3 5.2 2.9 2.0 2.4 2.3 1.8 2.3 3.0 3.5 3.7 4.8 5.2 5.9 5.9 5.6 5.2 5.2 4.8 3.0 3.1 3.6 2.8 2.1 -0.5 2.3 0.6 0.3 1.9 4.9 1.2 -1.4 -2.1
4.5 4.1 4.3 4.3 3.9 4.2 3.9 4.0 6.4 7.0 7.4 5.6 3.9 2.7 1.9 1.6 2.4 1.6 1.1 1.2 1.3 2.6 4.7 5.9 5.5 5.0 5.0 4.8 4.3 4.7 5.8 4.5 2.5 4.2 2.2 2.5 1.9 0.6 -1.0 -1.2 -0.2 -0.1 -1.3
6.5 5.8 5.5 4.8 3.7 3.5 4.3 3.9 3.4 4.7 5.8 5.4 4.8 4.5 4.7 4.5 6.9 3.5 0.6 0.1 0.1 0.7 3.5 4.9 5.5 4.8 4.3 4.5 4.7 3.1 3.2 4.3 4.2 4.1 4.8 3.4 3.0 1.4 -0.4 -1.3 -1.9 -1.8 -1.9
7.3 7.7 6.6 5.7 5.6 3.7 5.6 4.4 3.1 2.8 4.6 4.9 4.2 4.4 8.3 8.2 9.4 7.0 2.4 2.0 1.1 1.4 1.8 1.6 1.8 2.1 2.7 2.7 4.2 4.8 5.1 6.4 6.7 5.4 5.3 5.1 4.0 5.4 4.6 0.0 0.6 -0.3 -1.3
Wind_Speed
6 5 4 6 8 12 9 6 7 7 8 10 15 13 11 12 17 17 11 30 29 28 27 26 25 24 24 24 25 25 25 25 24 24 24 26 25 24 25 24 24 26 25
7 6 6 6 5 10 12 10 9 11 10 11 13 14 15 11 10 9 8 17 26 26 28 28 26 24 24 23 24 25 26 26 26 26 26 26 26 26 26 28 26 25 24
12 7 5 4 4 7 8 8 7 6 10 11 15 15 13 12 9 7 8 8 18 26 28 28 27 26 25 25 24 25 26 28 28 29 29 28 29 29 28 29 29 27 26
13 10 5 4 5 6 3 3 4 6 6 6 7 10 9 12 17 12 8 11 11 16 16 21 25 27 26 26 26 26 27 29 29 30 30 29 30 28 28 28 29 29 28
16 13 6 9 15 5 4 4 5 5 6 7 7 6 4 5 5 11 18 16 18 4 6 13 15 15 19 24 26 25 26 28 29 31 33 33 31 31 30 29 28 28 29
18 15 11 11 14 9 9 10 10 8 7 6 8 8 3 5 6 9 14 14 15 10 13 7 3 13 24 27 23 27 27 27 29 31 32 33 33 32 33 33 32 30 29
16 13 9 7 9 8 8 9 8 10 8 8 7 8 4 5 8 8 8 10 9 5 5 17 18 16 18 31 28 30 30 31 30 31 30 32 32 33 34 34 34 33 31
14 13 9 8 9 7 8 8 9 8 5 8 5 6 4 4 3 5 4 5 6 4 8 18 23 25 21 15 18 28 30 33 33 32 30 32 33 32 33 34 34 34 34
13 13 13 9 9 7 6 8 8 9 8 8 7 4 4 3 10 4 4 7 9 7 10 13 16 22 21 17 16 19 28 32 32 34 31 31 32 32 32 33 33 34 35
13 15 16 13 9 8 8 7 7 7 7 8 7 5 8 8 4 7 3 8 7 7 10 10 12 13 20 17 21 22 28 34 34 32 32 33 33 32 32 33 34 35 35
17 18 17 13 9 8 9 8 8 7 5 6 6 6 7 6 8 5 10 6 8 6 7 8 9 10 15 19 21 25 27 30 33 31 33 34 33 34 33 34 35 36 37
6 13 16 14 12 8 9 8 8 9 7 7 6 6 5 4 6 5 8 13 12 11 10 10 7 9 11 12 23 28 27 28 32 33 36 37 34 34 34 35 35 36 38
7 8 10 9 7 10 10 9 9 8 8 7 8 7 6 7 7 6 7 10 10 10 8 11 8 7 9 12 16 23 25 27 31 31 32 31 32 32 34 34 35 36 37
6 10 10 10 10 10 10 9 6 7 7 6 10 9 7 6 8 7 6 8 10 10 11 12 11 11 6 6 16 19 14 17 24 26 28 29 30 28 29 31 34 36 35
8 9 11 9 10 11 9 8 6 7 8 8 8 9 8 7 7 7 6 7 6 5 10 9 9 13 12 11 13 6 7 9 18 27 28 31 33 31 29 29 31 35 35
9 8 9 10 10 10 11 10 8 10 9 7 7 9 9 8 8 7 7 6 6 6 7 5 10 13 14 12 16 11 11 2 11 21 25 26 26 28 29 27 30 33 33
7 8 8 9 11 12 13 9 8 7 8 8 8 10 12 11 7 7 7 6 6 7 7 7 8 11 14 15 16 11 13 6 4 20 19 20 26 25 24 26 28 28 29
7 8 10 11 11 13 13 13 10 11 11 11 10 12 13 9 10 10 7 10 8 8 8 10 9 8 11 14 14 15 13 11 9 8 15 17 21 23 25 25 26 26 27
9 10 12 12 14 13 13 13 10 11 11 12 12 12 14 13 13 10 9 9 9 8 7 6 6 8 7 12 14 12 14 13 11 26 16 20 23 24 22 22 22 23 26
10 10 12 14 13 14 14 13 11 10 11 11 12 11 14 15 15 13 11 11 11 9 9 7 7 7 8 10 7 10 13 11 13 13 16 10 14 18 20 23 23 25 25
11 10 11 13 14 13 10 13 9 9 11 13 13 13 14 21 26 19 9 11 12 11 9 8 8 7 8 10 11 8 8 11 12 4 11 11 10 6 6 15 15 22 26
11 11 12 12 14 11 22 22 13 10 12 13 13 14 13 20 21 22 23 22 17 13 12 10 9 10 11 11 10 10 8 10 7 5 11 13 10 11 9 7 16 21 23
10 10 11 11 12 14 27 24 16 9 10 10 13 13 12 12 19 15 19 20 19 22 18 9 11 11 11 14 13 12 12 10 7 9 10 7 8 10 10 12 13 17 20
7 8 9 10 11 13 28 26 22 9 8 11 11 14 14 14 19 18 15 14 13 12 14 10 10 10 10 12 13 11 12 11 9 2 13 5 10 10 11 11 21 15 18
5 6 6 8 11 11 27 27 17 11 9 11 12 11 13 12 25 27 15 15 14 13 20 25 24 25 27 27 26 11 12 12 9 5 8 6 5 12 9 8 7 16 19
4 5 7 8 17 10 25 26 19 8 9 8 9 9 22 18 25 26 13 13 14 14 14 13 12 16 22 22 25 14 10 10 8 3 8 10 7 9 7 4 11 6 7
Wind_Direction
2 337 321 310 298 268 253 239 240 234 231 224 233 237 234 222 216 218 207 185 181 180 179 183 192 203 207 204 202 201 201 206 208 203 202 200 199 197 197 197 192 190 187
9 1 356 2 8 5 346 312 276 255 241 236 234 237 246 242 244 241 206 186 194 187 182 187 192 203 206 203 203 202 203 203 206 204 203 200 202 205 205 198 197 195 194
3 354 347 339 350 347 336 336 325 319 297 277 263 256 246 253 250 252 250 178 207 205 195 190 189 198 205 204 206 205 206 207 204 202 204 201 200 203 205 203 200 197 197
7 351 334 309 343 333 312 310 310 312 300 297 301 301 297 309 290 249 249 245 204 217 217 204 197 194 202 209 212 211 211 212 207 202 203 202 203 203 203 202 203 201 199
15 355 346 7 356 337 330 349 347 328 318 313 308 299 251 246 246 322 290 269 253 179 152 210 218 213 225 220 218 222 220 216 212 205 201 201 203 202 202 203 208 203 200
22 11 6 9 6 356 360 355 348 340 325 313 304 290 262 267 226 244 256 271 284 92 360 317 258 234 228 226 227 231 229 223 219 213 207 203 202 203 199 201 210 208 205
28 22 6 2 10 359 352 348 346 340 335 332 315 330 295 224 238 244 252 239 221 219 345 286 297 245 228 220 219 225 233 230 223 221 212 207 205 204 201 201 206 209 204
33 18 4 6 358 348 355 353 349 336 323 5 332 294 303 331 245 274 264 255 255 239 222 232 235 245 242 227 214 217 226 232 224 223 218 211 207 205 203 202 205 206 205
26 30 3 3 358 355 354 356 346 352 329 331 341 320 328 323 337 301 295 243 239 212 237 241 239 237 234 233 222 218 220 227 225 219 219 213 208 205 205 206 203 207 208
27 27 8 0 357 352 353 345 348 338 337 328 333 333 326 322 317 313 324 325 257 233 218 228 231 233 231 235 237 225 210 214 220 216 219 213 209 204 205 207 205 206 208
12 18 1 0 357 354 344 345 342 342 330 326 325 318 311 297 294 284 296 324 326 331 296 235 239 243 236 230 234 235 228 209 214 217 221 217 213 206 206 206 206 205 207
7 10 359 352 358 352 344 339 341 336 329 326 323 319 320 329 335 311 305 299 300 304 309 302 277 240 241 227 226 231 225 212 211 215 218 219 215 211 206 207 207 208 208
3 1 354 357 356 347 348 342 338 346 356 355 341 338 337 334 316 306 301 296 296 303 306 303 298 289 260 241 228 218 223 209 209 210 214 216 216 212 209 207 207 209 210
6 3 357 352 358 355 356 353 2 5 0 7 4 1 340 338 348 340 322 308 302 291 292 291 297 310 293 247 250 232 228 217 210 208 211 214 213 210 206 208 209 211 209
14 8 3 358 10 12 15 12 14 13 21 15 13 5 7 345 342 336 326 320 318 308 298 292 300 310 307 318 326 295 229 258 218 209 212 208 209 208 206 204 207 212 205
16 15 8 7 20 16 19 21 15 19 21 21 23 13 6 351 349 339 332 315 302 287 281 330 322 320 319 312 307 325 302 177 216 230 212 206 210 206 209 211 210 210 207
17 12 18 24 26 18 15 17 19 23 25 26 24 21 13 359 355 345 335 329 329 333 299 319 316 318 326 337 338 322 301 276 200 221 222 220 213 214 208 209 211 214 212
30 18 23 32 27 24 16 3 20 23 26 23 25 27 17 2 360 357 0 351 348 329 326 316 316 332 331 343 342 343 338 332 331 256 214 216 229 222 218 213 213 212 215
21 33 29 32 29 25 15 359 24 22 24 26 19 36 19 7 2 5 9 0 354 347 346 328 326 347 341 7 343 350 350 340 344 336 307 241 227 222 224 227 220 217 216
33 32 40 29 39 19 9 359 24 25 25 27 18 31 26 11 5 4 10 10 359 360 357 1 358 356 5 359 360 354 343 344 332 319 309 256 219 231 224 218 218 221 221
30 29 44 40 24 27 10 359 3 39 29 30 19 15 30 18 10 13 17 17 12 12 5 5 9 5 5 2 5 345 333 326 326 1 347 327 336 261 224 229 234 227 225
44 32 29 47 31 25 14 8 21 32 36 39 23 13 20 18 10 11 20 20 26 17 14 10 7 6 360 357 351 344 341 354 344 351 331 314 322 297 287 229 215 222 221
54 46 34 36 34 24 20 14 44 33 44 47 38 22 17 14 13 10 12 16 17 24 22 10 13 10 354 354 349 348 354 338 313 317 337 318 334 315 309 294 242 217 218
61 56 48 37 34 25 28 20 18 38 44 44 44 30 18 11 16 19 10 13 9 8 12 16 20 9 4 357 357 349 345 331 322 11 14 330 319 316 317 302 299 241 220
71 72 58 52 41 25 32 32 24 13 30 40 32 21 24 12 19 23 14 11 7 6 7 11 18 17 13 10 10 354 1 356 349 333 25 329 319 321 315 302 334 335 324
59 83 74 54 49 30 30 35 37 16 28 34 28 18 18 24 21 24 24 15 14 0 356 1 8 11 10 3 5 8 353 349 343 327 2 339 333 348 323 315 333 337 325